Scottsdale, AZ

7:08 AM MST on May 24, 2017 (GMT -0700)
Scottsdale

Weather History for KSDL - July, 2013

Change the Weather History Date:

Tuesday, July 2, 2013

  Actual Average Record
Temperature  
Mean Temperature 96 °F -  
Max Temperature 104 °F 101 °F 114 °F (2001)
Min Temperature 87 °F 79 °F 72 °F (2004)
Cooling Degree Days 30    
Growing Degree Days 46 (Base 50)    
Moisture  
Dew Point 57 °F    
Average Humidity 28    
Maximum Humidity 40    
Minimum Humidity 20    
Precipitation  
Precipitation 0.00 in - - ()
Sea Level Pressure  
Sea Level Pressure 29.81 in    
Wind  
Wind Speed 7 mph (South)    
Max Wind Speed 20 mph    
Max Gust Speed 33 mph    
Visibility 10 miles    
Events      
Averages and records for this station are not official NWS values.
T = Trace of Precipitation, MM = Missing Value Source: NWS Daily Summary

Daily Weather History Graph

Daily Weather History Graph

Search for Another Location

Airport or City:

Trip Planner

Search our weather history database for the weather conditions in past years. The results will help you decide how hot, cold, wet, or windy it might be!

Date:

Astronomy

Jul. 02, 2013 Rise Set
Actual Time 5:21 AM MST 7:41 PM MST
Civil Twilight 4:52 AM MST 8:10 PM MST
Nautical Twilight 4:17 AM MST 8:46 PM MST
Astronomical Twilight 3:38 AM MST 9:24 PM MST
Moon 1:18 AM MST (7/2) 3:05 PM MST (7/2)
Length of Visible Light 15h 17m
Length of Day
14h 20m
Waning Crescent, 25% of the Moon is Illuminated
Jul 2
Waning Crescent
Jul 8
New
Jul 15
First Quarter
Jul 22
Full
Jul 29
Last Quarter

Hourly Weather History & Observations

Time (MST) Temp. Heat Index Dew Point Humidity Pressure Visibility Wind Dir Wind Speed Gust Speed Precip Events Conditions
12:53 AM 97.0 °F 94.6 °F 53.1 °F 23% 29.72 in 10.0 mi WSW 6.9 mph - N/A   Clear
1:53 AM 96.1 °F 93.5 °F 53.1 °F 23% 29.73 in 10.0 mi Calm Calm - N/A   Clear
2:53 AM 93.0 °F 90.8 °F 54.0 °F 27% 29.76 in 10.0 mi SE 4.6 mph - N/A   Clear
3:53 AM 93.0 °F 91.7 °F 57.0 °F 30% 29.79 in 10.0 mi SSE 10.4 mph 23.0 mph N/A   Clear
4:21 AM 89.6 °F 88.9 °F 59.0 °F 36% 29.91 in 5.0 mi SE 19.6 mph 33.4 mph N/A   Haze
4:51 AM 87.8 °F 87.6 °F 60.8 °F 40% 29.95 in 10.0 mi SE 10.4 mph 25.3 mph N/A   Scattered Clouds
4:53 AM 87.1 °F 86.7 °F 60.1 °F 40% 29.86 in 10.0 mi SE 12.7 mph 24.2 mph N/A   Partly Cloudy
5:53 AM 87.1 °F 86.7 °F 60.1 °F 40% 29.89 in 8.0 mi South 12.7 mph 19.6 mph N/A   Partly Cloudy
7:53 AM 88.0 °F 87.6 °F 60.1 °F 39% 29.94 in 10.0 mi SE 9.2 mph 17.3 mph N/A   Clear
8:53 AM 90.0 °F 89.7 °F 60.1 °F 37% 29.93 in 10.0 mi SE 8.1 mph - N/A   Clear
9:53 AM 91.9 °F 91.5 °F 60.1 °F 34% 29.92 in 10.0 mi South 5.8 mph - N/A   Clear
10:53 AM 93.0 °F 92.3 °F 59.0 °F 32% 29.91 in 10.0 mi Variable 3.5 mph - N/A   Clear
11:53 AM 97.0 °F 96.5 °F 59.0 °F 28% 29.88 in 10.0 mi Calm Calm - N/A   Clear
12:53 PM 98.1 °F 97.2 °F 57.9 °F 26% 29.85 in 10.0 mi Variable 4.6 mph - N/A   Clear
1:53 PM 100.9 °F 100.5 °F 57.9 °F 24% 29.81 in 10.0 mi Variable 5.8 mph - N/A   Clear
2:53 PM 100.9 °F 99.6 °F 55.9 °F 22% 29.78 in 10.0 mi SW 4.6 mph - N/A   Clear
3:53 PM 102.9 °F 101.9 °F 55.9 °F 21% 29.74 in 10.0 mi West 6.9 mph - N/A   Clear
4:53 PM 104.0 °F 102.9 °F 55.9 °F 20% 29.72 in 10.0 mi SW 8.1 mph - N/A   Clear
5:53 PM 102.9 °F 101.4 °F 54.0 °F 20% 29.71 in 10.0 mi WSW 5.8 mph - N/A   Clear
6:53 PM 102.0 °F 100.1 °F 54.0 °F 20% 29.73 in 10.0 mi SSW 3.5 mph - N/A   Clear
7:53 PM 102.0 °F 100.1 °F 54.0 °F 20% 29.73 in 10.0 mi Calm Calm - N/A   Clear
8:53 PM 100.0 °F 98.3 °F 55.0 °F 22% 29.75 in 10.0 mi East 5.8 mph - N/A   Clear
9:53 PM 99.0 °F 97.3 °F 55.0 °F 23% 29.73 in 10.0 mi South 6.9 mph - N/A   Clear
10:53 PM 93.0 °F 91.1 °F 55.0 °F 28% 29.78 in 10.0 mi SSE 8.1 mph - N/A   Clear
11:53 PM 89.1 °F 88.0 °F 57.9 °F 35% 29.80 in 10.0 mi SSE 4.6 mph - N/A   Clear